Location: Ammerl�gen
(47.2167°N, 9.6000°E)
Time: 10:24:33
(UTC+00:00)

Terra - Pass Details

Date: 21 April 2021
Orbit: 701 x 703 km, 98.2° (Epoch: 06 May)

Event Time Altitude Azimuth Distance (km) Brightness Sun altitude
Exits shadow 20:20:42 27° 92° (E) 1,333 2.8 -18.4°
Maximum altitude 20:21:53 31° 65° (ENE) 1,234 2.9 -18.6°
Drops below altitude 10° 20:26:02 10° 5° (N) 2,180 4.9 -19.1°
Sets 20:28:30 0° 355° (N) 3,103 5.9 -19.4°
